This is the latest recevied weather packets stored in our database for station/object SP4LIN-15. If no packets are shown the sender has not sent any weather packets the latest 10 day(s).
| Time | Temp. | Humidity | Pressure | Rain* | Wind** | Luminosity | Snow |
|---|---|---|---|---|---|---|---|
| 1778045942 | 9.44° C | 84% | 999.8 hPa | 0 mm | - | - | - |
| 1778045042 | 8.89° C | 86% | 999.9 hPa | 0 mm | - | - | - |
| 1778044142 | 8.33° C | 86% | 999.9 hPa | 0 mm | - | - | - |
| 1778043242 | 8.33° C | 88% | 1000.1 hPa | 0.51 mm | - | - | - |
| 1778042342 | 7.22° C | 88% | 1000.2 hPa | 0.51 mm | - | - | - |
| 1778041442 | 7.22° C | 88% | 1000.2 hPa | 0.51 mm | - | - | - |
| 1778040544 | 7.22° C | 88% | 1000.2 hPa | 0 mm | - | - | - |
| 1778039642 | 7.78° C | 88% | 1000.4 hPa | 0 mm | - | - | - |
| 1778038742 | 7.78° C | 88% | 1000.5 hPa | 0 mm | - | - | - |
| 1778037842 | 7.78° C | 88% | 1000.6 hPa | 0 mm | - | - | - |
| 1778036942 | 7.78° C | 88% | 1000.7 hPa | 0 mm | - | - | - |
| 1778036042 | 7.78° C | 88% | 1000.4 hPa | 0 mm | - | - | - |
| 1778035142 | 7.22° C | 88% | 1000.7 hPa | 0 mm | - | - | - |
| 1778034243 | 7.22° C | 88% | 1000.7 hPa | 0 mm | - | - | - |
| 1778033342 | 7.78° C | 88% | 1000.7 hPa | 0 mm | - | - | - |
| 1778032442 | 7.78° C | 88% | 1001 hPa | 0 mm | - | - | - |
| 1778031543 | 8.33° C | 88% | 1000.8 hPa | 0 mm | - | - | - |
| 1778030643 | 8.33° C | 88% | 1001.6 hPa | 0 mm | - | - | - |
| 1778029743 | 8.33° C | 88% | 1001.6 hPa | 0 mm | - | - | - |
| 1778028843 | 8.33° C | 88% | 1001.5 hPa | 0 mm | - | - | - |
| 1778027943 | 8.33° C | 88% | 1001.5 hPa | 0 mm | - | - | - |
| 1778027043 | 8.89° C | 89% | 1001.2 hPa | 0 mm | - | - | - |
| 1778026143 | 8.89° C | 89% | 1001.3 hPa | 0 mm | - | - | - |
| 1778025243 | 8.89° C | 89% | 1001.4 hPa | 0 mm | - | - | - |
| 1778024343 | 8.89° C | 89% | 1001.5 hPa | 0 mm | - | - | - |
* Rain latest hour (hover to see other rain measurements)
** Current wind speed in m/s (hover to see current wind gust speed)